Eastsound, WA
on Saturday, January 19, 2013

Saturday
Previous Day Next Day
Daily Summary
 ActualAverage (KBLI)Record (KBLI)
Temperature
Mean Temperature °F 40°F  
Max Temperature 39°F 46°F 63°F (2005)
Min Temperature 35°F 33°F 11°F (1954)
Degree Days
Heating Degree Days 28 25  
Month to date heating degree days 498  
Cooling Degree Days 0 0  
Month to date cooling degree days 0  
Year to date cooling degree days 0  
Moisture
Dew Point 36°F   
Average Humidity 93    
Maximum Humidity 100    
Minimum Humidity 87    
Precipitation
Precipitation 0.00 in 0.16 in 1.25 in (1967)
Month to date precipitation 2.94  
Year to date precipitation 2.94  
Wind
Wind Speed 4 mph   
Max Wind Speed 9 mph   
Max Gust Speed mph   
Visibility 9 miles   
Events     

Key: T is trace of precipitation, MM is missing value
Source: NWS Daily Summary
Time(PST)TemperatureDew PointHumidity Pressure Visibility Wind DirectionWind SpeedGust SpeedPrecipitationEvents Conditions
12:15 AM 35.6°F 35.6°F 100% 30.34 in 3.0 miles Calm Calm - N/A   Overcast
12:35 AM 37.4°F 37.4°F 100% 30.34 in 3.0 miles Calm Calm - N/A   Overcast
12:55 AM 37.4°F 35.6°F 93% 30.34 in 5.0 miles Calm Calm - N/A   Overcast
1:15 AM 37.4°F 35.6°F 93% 30.34 in 5.0 miles North - - N/A   Overcast
1:35 AM 37.4°F 35.6°F 93% 30.35 in 5.0 miles NE 3.5 mph - N/A   Overcast
1:55 AM 37.4°F 35.6°F 93% 30.34 in 5.0 miles North - - N/A   Overcast
2:15 AM 37.4°F 35.6°F 93% 30.35 in 6.0 miles North 4.6 mph - N/A   Overcast
2:35 AM 37.4°F 35.6°F 93% 30.35 in 7.0 miles Calm Calm - N/A   Overcast
3:15 AM 37.4°F 35.6°F 93% 30.36 in 6.0 miles Calm Calm - N/A   Overcast
3:35 AM 37.4°F 35.6°F 93% 30.35 in 5.0 miles NE 3.5 mph - N/A   Overcast
3:55 AM 37.4°F 35.6°F 93% 30.36 in 5.0 miles NNE 3.5 mph - N/A   Overcast
5:15 AM 35.6°F 35.6°F 100% 30.35 in 5.0 miles Calm Calm - N/A   Overcast
5:55 AM 37.4°F 35.6°F 93% 30.35 in 5.0 miles North 6.9 mph - N/A   Overcast
6:15 AM 37.4°F 35.6°F 93% 30.36 in 8.0 miles North 4.6 mph - N/A   Overcast
6:35 AM 37.4°F 35.6°F 93% 30.36 in 10.0 miles NNE 3.5 mph - N/A   Overcast
7:35 AM 37.4°F 35.6°F 93% 30.36 in 9.0 miles North 6.9 mph - N/A   Overcast
7:55 AM 35.6°F 35.6°F 100% 30.36 in 9.0 miles North 8.1 mph - N/A   Overcast
8:15 AM 35.6°F 33.8°F 93% 30.37 in 10.0 miles North 5.8 mph - N/A   Overcast
8:35 AM 35.6°F 33.8°F 93% 30.37 in 5.0 miles North 8.1 mph - N/A   Overcast
9:15 AM 35.6°F 33.8°F 93% 30.38 in 2.5 miles North 4.6 mph - N/A   Overcast
10:15 AM 35.6°F 35.6°F 100% 30.39 in 7.0 miles North 5.8 mph - N/A   Overcast
10:55 AM 37.4°F 35.6°F 93% 30.39 in 10.0 miles North 5.8 mph - N/A   Overcast
11:15 AM 37.4°F 35.6°F 93% 30.38 in 10.0 miles North 8.1 mph - N/A   Overcast
11:35 AM 37.4°F 35.6°F 93% 30.38 in 10.0 miles North 6.9 mph - N/A   Overcast
12:15 PM 37.4°F 35.6°F 93% 30.37 in 10.0 miles North 6.9 mph - N/A   Overcast
12:35 PM 39.2°F 35.6°F 87% 30.37 in 10.0 miles North 5.8 mph - N/A   Overcast
12:55 PM 37.4°F 35.6°F 93% 30.36 in 10.0 miles North 5.8 mph - N/A   Overcast
1:15 PM 39.2°F 35.6°F 87% 30.36 in 10.0 miles North 5.8 mph - N/A   Overcast
1:35 PM 39.2°F 35.6°F 87% 30.36 in 10.0 miles North 4.6 mph - N/A   Overcast
1:55 PM 39.2°F 35.6°F 87% 30.35 in 10.0 miles North 6.9 mph - N/A   Overcast
2:15 PM 39.2°F 35.6°F 87% 30.35 in 10.0 miles North 6.9 mph - N/A   Overcast
2:35 PM 39.2°F 35.6°F 87% 30.35 in 10.0 miles North 6.9 mph - N/A   Mostly Cloudy
2:55 PM 39.2°F 35.6°F 87% 30.35 in 10.0 miles North 9.2 mph - N/A   Overcast
3:15 PM 39.2°F 35.6°F 87% 30.35 in 10.0 miles North 9.2 mph - N/A   Overcast
3:35 PM 39.2°F 35.6°F 87% 30.35 in 10.0 miles North 9.2 mph - N/A   Overcast
3:55 PM 39.2°F 35.6°F 87% 30.35 in 10.0 miles North 8.1 mph - N/A   Overcast
4:15 PM 39.2°F 35.6°F 87% 30.35 in 10.0 miles North 6.9 mph - N/A   Overcast
4:35 PM 39.2°F 35.6°F 87% 30.35 in 10.0 miles North 6.9 mph - N/A   Mostly Cloudy
4:55 PM 39.2°F 35.6°F 87% 30.35 in 10.0 miles North 8.1 mph - N/A   Overcast
5:15 PM 39.2°F 37.4°F 93% 30.35 in 10.0 miles North 6.9 mph - N/A   Overcast
5:35 PM 39.2°F 37.4°F 93% 30.35 in 10.0 miles North 5.8 mph - N/A   Overcast
5:55 PM 39.2°F 37.4°F 93% 30.35 in 10.0 miles North 6.9 mph - N/A   Overcast
6:15 PM 39.2°F 37.4°F 93% 30.35 in 10.0 miles North 5.8 mph - N/A   Overcast
6:35 PM 39.2°F 37.4°F 93% 30.35 in 10.0 miles North 5.8 mph - N/A   Overcast
6:55 PM 39.2°F 37.4°F 93% 30.35 in 10.0 miles North 8.1 mph - N/A   Mostly Cloudy
7:15 PM 39.2°F 37.4°F 93% 30.36 in 10.0 miles North 5.8 mph - N/A   Mostly Cloudy
7:35 PM 39.2°F 37.4°F 93% 30.36 in 10.0 miles North 5.8 mph - N/A   Overcast
7:55 PM 39.2°F 37.4°F 93% 30.36 in 10.0 miles North 6.9 mph - N/A   Overcast
8:15 PM 39.2°F 37.4°F 93% 30.36 in 10.0 miles North 6.9 mph - N/A   Mostly Cloudy
8:35 PM 39.2°F 37.4°F 93% 30.36 in 10.0 miles North 5.8 mph - N/A   Mostly Cloudy
8:55 PM 39.2°F 37.4°F 93% 30.36 in 10.0 miles North 5.8 mph - N/A   Mostly Cloudy
9:15 PM 39.2°F 39.2°F 100% 30.37 in 10.0 miles North 6.9 mph - N/A   Overcast
9:35 PM 39.2°F 39.2°F 100% 30.37 in 10.0 miles North 6.9 mph - N/A   Overcast
9:55 PM 39.2°F 37.4°F 93% 30.37 in 10.0 miles North 6.9 mph - N/A   Overcast
10:15 PM 39.2°F 37.4°F 93% 30.37 in 10.0 miles North 4.6 mph - N/A   Overcast
10:35 PM 39.2°F 37.4°F 93% 30.37 in 10.0 miles North 4.6 mph - N/A   Overcast
11:15 PM 39.2°F 37.4°F 93% 30.37 in 10.0 miles North 6.9 mph - N/A   Mostly Cloudy
11:35 PM 39.2°F 39.2°F 100% 30.38 in 10.0 miles North 9.2 mph - N/A   Mostly Cloudy
11:55 PM 39.2°F 39.2°F 100% 30.37 in 10.0 miles North 5.8 mph - N/A   Scattered Clouds
Moon Phase
Jan. 19 Jan. 26 Feb. 03 Feb. 10 Feb. 17
Sunrise:07:55 AM (PST) Moon Rise:11:24 AM (PST)1/19
Sunset:04:49 PM (PST) Moon Set:01:28 AM (PST)1/19

Copyright © 2014 The Weather Underground, Inc.